Tracking 18030 objects as of 29-March-2017
HD Live streaming from Space Station
objects crossing your sky now

SDS-4

Track SDS-4 now!
10-day predictions
SDS-4 is classified as:


NORAD ID: 38339
Int'l Code: 2012-025C
Perigee: 661.5 km
Apogee: 672.7 km
Inclination: 98.4 °
Period: 97.9 minutes
Semi major axis: 7038 km
RCS: 0.47 m2 (medium)
Launch date: May 17, 2012
Source: Japan (JPN)
Launch site: TANEGASHIMA SPACE CENTER (TNSTA)
Your satellite tracking list
Your tracking list is empty





NASA's NSSDC Master Catalog

Two Line Element Set (TLE):
1 38339U 12025C   17087.92231238 +.00000092 +00000-0 +23965-4 0  9999
2 38339 098.3934 079.0642 0007934 162.0300 198.1187 14.70345524260724
Source of the keplerian elements: AFSPC